Nashville, TN

9:55 PM CST on December 13, 2019 (GMT -0600)
Nashville International

Weather History for KBNA - October, 2019

Change the Weather History Date:

Thursday, October 10, 2019

  Actual Average Record
Temperature  
Mean Temperature 72 °F 62 °F  
Max Temperature 82 °F 74 °F 90 °F (1980)
Min Temperature 62 °F 51 °F 30 °F (2000)
Degree Days  
Heating Degree Days 0    
Month to date heating degree days 3  
Since 1 July heating degree days 3  
Cooling Degree Days 8    
Month to date cooling degree days 98  
Year to date cooling degree days 2269  
Growing Degree Days 22 (Base 50)    
Moisture  
Dew Point 61 °F    
Average Humidity 69    
Maximum Humidity 90    
Minimum Humidity 51    
Precipitation  
Precipitation 0.00 in 0.09 in 2.62 in (2014)
Month to date precipitation 2.19 0.99  
Year to date precipitation 49.61 36.65  
Sea Level Pressure  
Sea Level Pressure 30.07 in    
Wind  
Wind Speed 4 mph ()    
Max Wind Speed 17 mph    
Max Gust Speed 20 mph    
Visibility 10.0 miles    
Events      
T = Trace of Precipitation, MM = Missing Value Source: Averaged Metar Reports

Daily Weather History Graph

Daily Weather History Graph

Search for Another Location

Airport or City:

Astronomy

Oct. 10, 2019 Rise Set
Actual Time 6:49 AM CDT 6:17 PM CDT
Civil Twilight 6:23 AM CDT 6:43 PM CDT
Nautical Twilight 5:53 AM CDT 7:13 PM CDT
Astronomical Twilight 5:23 AM CDT 7:42 PM CDT
Moon 5:11 PM CDT (10/10) 3:40 AM CDT (10/10)
Length of Visible Light 12h 20m
Length of Day
11h 28m
Waxing Gibbous, 91% of the Moon is Illuminated
Oct 10
Waxing Gibbous
Oct 13
Full
Oct 21
Last Quarter
Oct 27
New
Nov 4
First Quarter

Hourly Weather History & Observations

Time (CDT) Temp. Heat Index Dew Point Humidity Pressure Visibility Wind Dir Wind Speed Gust Speed Precip Events Conditions
12:53 AM 64.0 °F - 59.0 °F 84% 30.07 in 10.0 mi Calm Calm - N/A   Clear
1:53 AM 64.0 °F - 59.0 °F 84% 30.08 in 10.0 mi Calm Calm - N/A   Overcast
2:53 AM 64.0 °F - 59.0 °F 84% 30.07 in 10.0 mi Calm Calm - N/A   Mostly Cloudy
3:53 AM 64.0 °F - 59.0 °F 84% 30.08 in 10.0 mi Calm Calm - N/A   Mostly Cloudy
4:53 AM 63.0 °F - 59.0 °F 87% 30.08 in 10.0 mi SE 4.6 mph - N/A   Partly Cloudy
5:53 AM 63.0 °F - 59.0 °F 87% 30.09 in 10.0 mi SE 4.6 mph - N/A   Partly Cloudy
6:53 AM 63.0 °F - 59.0 °F 87% 30.10 in 10.0 mi ESE 3.5 mph - N/A   Scattered Clouds
7:53 AM 64.9 °F - 60.1 °F 84% 30.10 in 10.0 mi SE 4.6 mph - N/A   Scattered Clouds
8:53 AM 70.0 °F - 61.0 °F 73% 30.12 in 10.0 mi Variable 6.9 mph - N/A   Mostly Cloudy
9:53 AM 73.0 °F - 60.1 °F 64% 30.13 in 10.0 mi SSE 10.4 mph - N/A   Mostly Cloudy
10:53 AM 78.1 °F - 61.0 °F 56% 30.13 in 10.0 mi SSE 8.1 mph - N/A   Mostly Cloudy
11:53 AM 81.0 °F 81.9 °F 62.1 °F 52% 30.10 in 10.0 mi South 12.7 mph - N/A   Mostly Cloudy
12:53 PM 82.0 °F 83.0 °F 62.1 °F 51% 30.08 in 10.0 mi SSE 6.9 mph - N/A   Mostly Cloudy
1:53 PM 81.0 °F 81.9 °F 62.1 °F 52% 30.06 in 10.0 mi South 11.5 mph - N/A   Mostly Cloudy
2:53 PM 82.0 °F 83.1 °F 63.0 °F 52% 30.04 in 10.0 mi South 12.7 mph - N/A   Mostly Cloudy
3:53 PM 81.0 °F 81.9 °F 62.1 °F 52% 30.03 in 10.0 mi South 12.7 mph - N/A   Mostly Cloudy
4:53 PM 81.0 °F 81.9 °F 62.1 °F 52% 30.02 in 10.0 mi South 12.7 mph - N/A   Mostly Cloudy
5:53 PM 78.1 °F - 62.1 °F 58% 30.02 in 10.0 mi South 8.1 mph - N/A   Scattered Clouds
6:53 PM 75.0 °F - 62.1 °F 64% 30.03 in 10.0 mi South 8.1 mph - N/A   Partly Cloudy
7:53 PM 73.9 °F - 62.1 °F 66% 30.03 in 10.0 mi SSE 6.9 mph - N/A   Partly Cloudy
8:53 PM 71.1 °F - 62.1 °F 73% 30.04 in 10.0 mi South 5.8 mph - N/A   Scattered Clouds
9:53 PM 71.1 °F - 62.1 °F 73% 30.04 in 10.0 mi SSE 6.9 mph - N/A   Partly Cloudy
10:53 PM 71.1 °F - 61.0 °F 70% 30.03 in 10.0 mi SSE 8.1 mph - N/A   Clear
11:53 PM 70.0 °F - 61.0 °F 73% 30.03 in 10.0 mi SSE 4.6 mph - N/A   Clear